When you browse on this site, cookies collect data to enhance your experience and personalize the content and advertising you see.
Visit our Privacy Policy to learn more. By continuing to use the site, you agree to this use of cookies and data.

Stündliche Wetter Juan Rodríguez Clara

Heute, 26 September, Samstag

Zeit Temperatur Niederschläge Wind Luftdruck Luftfeuchtigkeit
00:00 +25°C° 0.1 mm 1 m/S 751 mmHg 90%
01:00 +25°C° 0 mm 1 m/S 751 mmHg 91%
02:00 +24°C° 0 mm 2 m/S 750 mmHg 92%
03:00 +24°C° 0 mm 2 m/S 750 mmHg 94%
04:00 +24°C° 0 mm 2 m/S 750 mmHg 94%
05:00 +24°C° 0 mm 1 m/S 750 mmHg 95%
06:00 +24°C° 0 mm 1 m/S 750 mmHg 96%
07:00 +25°C° 0 mm 2 m/S 750 mmHg 93%
08:00 +27°C° 0 mm 2 m/S 751 mmHg 90%
09:00 +28°C° 0 mm 2 m/S 751 mmHg 87%
10:00 +29°C° 0.6 mm 2 m/S 751 mmHg 83%
11:00 +30°C° 0.6 mm 2 m/S 750 mmHg 80%
12:00 +31°C° 0.6 mm 3 m/S 750 mmHg 76%
13:00 +31°C° 0.8 mm 3 m/S 749 mmHg 77%
14:00 +31°C° 0.8 mm 2 m/S 748 mmHg 78%
15:00 +31°C° 0.8 mm 2 m/S 747 mmHg 78%
16:00 +30°C° 1.3 mm 2 m/S 747 mmHg 83%
17:00 +29°C° 1.3 mm 2 m/S 747 mmHg 87%
18:00 +27°C° 1.3 mm 2 m/S 748 mmHg 92%
19:00 +27°C° 0.4 mm 2 m/S 748 mmHg 92%
20:00 +27°C° 0.4 mm 1 m/S 749 mmHg 92%
21:00 +26°C° 0.4 mm 1 m/S 750 mmHg 92%
22:00 +26°C° 1.1 mm 1 m/S 750 mmHg 93%
23:00 +26°C° 1.1 mm 2 m/S 750 mmHg 94%

Morgen, 27 September, Sonntag

Zeit Temperatur Niederschläge Wind Luftdruck Luftfeuchtigkeit
00:00 +25°C° 1.1 mm 2 m/S 750 mmHg 95%
01:00 +25°C° 0 mm 2 m/S 749 mmHg 95%
02:00 +25°C° 0 mm 2 m/S 749 mmHg 95%
03:00 +25°C° 0 mm 1 m/S 748 mmHg 95%
04:00 +25°C° 0 mm 1 m/S 748 mmHg 95%
05:00 +23°C° 0 mm 0 m/S 748 mmHg 94%
06:00 +23°C° 0 mm 0 m/S 748 mmHg 94%
07:00 +24°C° 0 mm 0 m/S 748 mmHg 91%
08:00 +25°C° 0 mm 0 m/S 749 mmHg 88%
09:00 +28°C° 0 mm 1 m/S 749 mmHg 85%
10:00 +29°C° 0 mm 1 m/S 749 mmHg 82%
11:00 +30°C° 0 mm 1 m/S 748 mmHg 80%
12:00 +30°C° 0 mm 2 m/S 748 mmHg 77%
13:00 +31°C° 0 mm 2 m/S 747 mmHg 75%
14:00 +32°C° 0 mm 2 m/S 746 mmHg 72%
15:00 +32°C° 0 mm 2 m/S 746 mmHg 70%
16:00 +31°C° 0 mm 2 m/S 746 mmHg 74%
17:00 +30°C° 0 mm 1 m/S 746 mmHg 78%
18:00 +29°C° 0 mm 1 m/S 746 mmHg 82%
19:00 +29°C° 0.3 mm 1 m/S 746 mmHg 83%
20:00 +28°C° 0.3 mm 2 m/S 747 mmHg 85%
21:00 +27°C° 0.3 mm 2 m/S 748 mmHg 87%
22:00 +27°C° 0 mm 2 m/S 748 mmHg 87%
23:00 +26°C° 0 mm 2 m/S 748 mmHg 87%

übermorgen, 28 September, Montag

Zeit Temperatur Niederschläge Wind Luftdruck Luftfeuchtigkeit
00:00 +26°C° 0 mm 3 m/S 748 mmHg 87%
01:00 +26°C° 0 mm 3 m/S 747 mmHg 89%
02:00 +25°C° 0 mm 2 m/S 747 mmHg 91%
03:00 +25°C° 0 mm 2 m/S 746 mmHg 93%
04:00 +25°C° 0 mm 2 m/S 746 mmHg 93%
05:00 +25°C° 0 mm 2 m/S 746 mmHg 94%
06:00 +24°C° 0 mm 2 m/S 747 mmHg 95%
07:00 +26°C° 0 mm 2 m/S 747 mmHg 92%
08:00 +27°C° 0 mm 2 m/S 747 mmHg 88%
09:00 +28°C° 0 mm 2 m/S 748 mmHg 85%
10:00 +29°C° 0 mm 2 m/S 747 mmHg 81%
11:00 +30°C° 0 mm 2 m/S 747 mmHg 77%
12:00 +31°C° 0 mm 2 m/S 747 mmHg 73%
13:00 +32°C° 0 mm 2 m/S 746 mmHg 72%
14:00 +32°C° 0 mm 2 m/S 746 mmHg 71%
15:00 +34°C° 0 mm 2 m/S 745 mmHg 71%
16:00 +32°C° 0.1 mm 2 m/S 745 mmHg 74%
17:00 +31°C° 0.1 mm 1 m/S 746 mmHg 78%
18:00 +30°C° 0.1 mm 1 m/S 746 mmHg 81%
19:00 +29°C° 0.4 mm 1 m/S 747 mmHg 83%
20:00 +28°C° 0.4 mm 1 m/S 748 mmHg 85%
21:00 +27°C° 0.4 mm 1 m/S 748 mmHg 88%
22:00 +27°C° 1.3 mm 1 m/S 749 mmHg 89%
23:00 +26°C° 1.3 mm 1 m/S 749 mmHg 90%

29 September, Dienstag

Zeit Temperatur Niederschläge Wind Luftdruck Luftfeuchtigkeit
00:00 +26°C° 1.3 mm 1 m/S 749 mmHg 92%
01:00 +25°C° 1 mm 1 m/S 749 mmHg 92%
02:00 +25°C° 1 mm 2 m/S 749 mmHg 93%
03:00 +25°C° 1 mm 2 m/S 749 mmHg 94%
04:00 +25°C° 0.8 mm 3 m/S 749 mmHg 93%
05:00 +25°C° 0.8 mm 4 m/S 749 mmHg 92%
06:00 +25°C° 0.8 mm 5 m/S 750 mmHg 92%
07:00 +26°C° 0.3 mm 6 m/S 750 mmHg 90%
08:00 +26°C° 0.3 mm 7 m/S 751 mmHg 87%
09:00 +26°C° 0.3 mm 9 m/S 752 mmHg 85%
10:00 +26°C° 0.1 mm 9 m/S 752 mmHg 85%
11:00 +26°C° 0.1 mm 9 m/S 752 mmHg 85%
12:00 +24°C° 0.1 mm 9 m/S 752 mmHg 85%
13:00 +24°C° 0 mm 9 m/S 751 mmHg 81%
14:00 +26°C° 0 mm 10 m/S 751 mmHg 78%
15:00 +26°C° 0 mm 10 m/S 750 mmHg 74%
16:00 +24°C° 0 mm 8 m/S 751 mmHg 76%
17:00 +23°C° 0 mm 7 m/S 751 mmHg 77%
18:00 +22°C° 0 mm 6 m/S 752 mmHg 79%
19:00 +22°C° 0 mm 5 m/S 752 mmHg 75%
20:00 +22°C° 0 mm 5 m/S 753 mmHg 70%
21:00 +22°C° 0 mm 5 m/S 754 mmHg 66%
22:00 +22°C° 0 mm 5 m/S 754 mmHg 64%
23:00 +22°C° 0 mm 5 m/S 753 mmHg 62%

30 September, Mittwoch

Zeit Temperatur Niederschläge Wind Luftdruck Luftfeuchtigkeit
00:00 +23°C° 0 mm 4 m/S 753 mmHg 60%
01:00 +22°C° 0 mm 4 m/S 753 mmHg 59%
02:00 +22°C° 0 mm 4 m/S 753 mmHg 57%
03:00 +22°C° 0 mm 4 m/S 752 mmHg 56%
04:00 +22°C° 0 mm 5 m/S 753 mmHg 57%
05:00 +23°C° 0 mm 5 m/S 753 mmHg 57%
06:00 +23°C° 0 mm 6 m/S 753 mmHg 58%
07:00 +22°C° 0 mm 6 m/S 753 mmHg 65%
08:00 +22°C° 0 mm 5 m/S 754 mmHg 71%
09:00 +22°C° 0 mm 5 m/S 754 mmHg 78%
10:00 +23°C° 0 mm 6 m/S 754 mmHg 75%
11:00 +26°C° 0 mm 6 m/S 754 mmHg 73%
12:00 +27°C° 0 mm 7 m/S 753 mmHg 70%
13:00 +27°C° 0 mm 7 m/S 753 mmHg 71%
14:00 +27°C° 0 mm 7 m/S 752 mmHg 72%
15:00 +27°C° 0 mm 7 m/S 751 mmHg 72%
16:00 +26°C° 0 mm 6 m/S 752 mmHg 76%
17:00 +25°C° 0 mm 5 m/S 752 mmHg 79%
18:00 +23°C° 0 mm 4 m/S 752 mmHg 82%
19:00 +22°C° 0 mm 3 m/S 753 mmHg 82%
20:00 +22°C° 0 mm 3 m/S 753 mmHg 81%
21:00 +21°C° 0 mm 3 m/S 754 mmHg 81%
22:00 +21°C° 0 mm 3 m/S 754 mmHg 82%
23:00 +21°C° 0 mm 3 m/S 754 mmHg 83%

1 Oktober, Donnerstag

Zeit Temperatur Niederschläge Wind Luftdruck Luftfeuchtigkeit
00:00 +20°C° 0 mm 3 m/S 753 mmHg 84%
01:00 +20°C° 0 mm 3 m/S 753 mmHg 83%
02:00 +20°C° 0 mm 3 m/S 753 mmHg 83%
03:00 +20°C° 0 mm 3 m/S 752 mmHg 82%
04:00 +19°C° 0 mm 3 m/S 752 mmHg 82%
05:00 +19°C° 0 mm 3 m/S 752 mmHg 83%
06:00 +19°C° 0 mm 3 m/S 752 mmHg 83%
07:00 +20°C° 0 mm 4 m/S 753 mmHg 81%
08:00 +21°C° 0 mm 4 m/S 753 mmHg 80%
09:00 +23°C° 0 mm 5 m/S 754 mmHg 78%
10:00 +25°C° 0 mm 5 m/S 753 mmHg 75%
11:00 +26°C° 0 mm 5 m/S 753 mmHg 73%
12:00 +27°C° 0 mm 6 m/S 753 mmHg 70%
13:00 +27°C° 0 mm 6 m/S 752 mmHg 71%
14:00 +27°C° 0 mm 6 m/S 752 mmHg 71%
15:00 +27°C° 0 mm 6 m/S 751 mmHg 72%
16:00 +26°C° 0 mm 5 m/S 751 mmHg 76%
17:00 +25°C° 0 mm 5 m/S 752 mmHg 80%
18:00 +23°C° 0 mm 4 m/S 752 mmHg 84%
19:00 +22°C° 0 mm 4 m/S 753 mmHg 84%
20:00 +22°C° 0 mm 3 m/S 754 mmHg 85%
21:00 +21°C° 0 mm 3 m/S 754 mmHg 85%
22:00 +21°C° 0 mm 3 m/S 754 mmHg 85%
23:00 +21°C° 0 mm 3 m/S 754 mmHg 86%
Mehr zeigen